Powrót do katalogu

STARLINK-5944

AktywnyŁącznośćVLEO
NORAD 56001·PAYLOAD·🇺🇸 United States

Wystrzelony Mar 24, 2023 z Cape Canaveral Space Force Station

Loading…

Następne Przeloty (najbliższe 24 godziny)

TLE

ŚwieżeSource: CelesTrak SupGP

Epoka: Sep 15, 2026, 01:35 UTC

1 56001C 23042R   26258.06645833  .00002837  00000+0  10276-3 0  2587
2 56001  43.0020  74.2441 0001007 273.4959  89.0893 15.27579909    14

Śledź STARLINK-5944 w czasie rzeczywistym z AllMySat

Download on the App Store